contact:dominique.lefevre@mio.osupytheas.fr, maurice.libes@osupytheas.fr, didier.mallarino@osupytheas.fr
Project:EMSO http://www.emso-fr.org/EMSO-France
Depth: 2436.0 m
Title:EMSO Ligure Ouest : Data MII capteur MICROCAT
DateTime_Computer,Latitude,Longitude,Temperature,Conductivity,Pressure,DateTime_Instrument
DateTime_Computer,Latitude,Longitude,degC,S m-1,dbar,DateTime_Instrument
2021-01-13T00:00:46Z,42.805,6.029,13.2979,4.59987,2470.017,2021-1-13T02:01:47Z
2021-01-13T00:03:49Z,42.805,6.029,13.2985,4.59991,2470.053,2021-1-13T02:04:50Z
2021-01-13T00:06:52Z,42.805,6.029,13.2980,4.59984,2470.017,2021-1-13T02:07:53Z
2021-01-13T00:09:55Z,42.805,6.029,13.2980,4.59985,2470.03,2021-1-13T02:10:57Z
2021-01-13T00:12:59Z,42.805,6.029,13.2983,4.59989,2469.993,2021-1-13T02:14:00Z
2021-01-13T00:16:02Z,42.805,6.029,13.2981,4.59985,2470.017,2021-1-13T02:17:03Z
2021-01-13T00:19:05Z,42.805,6.029,13.2986,4.59985,2470.04,2021-1-13T02:20:06Z
2021-01-13T00:22:08Z,42.805,6.029,13.2979,4.59986,2470.017,2021-1-13T02:23:09Z
2021-01-13T00:25:11Z,42.805,6.029,13.2983,4.59984,2470.077,2021-1-13T02:26:12Z
2021-01-13T00:28:14Z,42.805,6.029,13.2983,4.59986,2470.007,2021-1-13T02:29:15Z
2021-01-13T00:31:17Z,42.805,6.029,13.2982,4.59985,2469.993,2021-1-13T02:32:18Z
2021-01-13T00:34:20Z,42.805,6.029,13.2980,4.59985,2469.993,2021-1-13T02:35:22Z
2021-01-13T00:37:24Z,42.805,6.029,13.2981,4.59985,2470.017,2021-1-13T02:38:25Z
2021-01-13T00:40:27Z,42.805,6.029,13.2979,4.59986,2470.03,2021-1-13T02:41:28Z
2021-01-13T00:43:30Z,42.805,6.029,13.2982,4.59986,2469.993,2021-1-13T02:44:31Z
2021-01-13T00:46:33Z,42.805,6.029,13.2982,4.59986,2470.017,2021-1-13T02:47:34Z
2021-01-13T00:49:36Z,42.805,6.029,13.2983,4.59986,2470.03,2021-1-13T02:50:37Z
2021-01-13T00:52:39Z,42.805,6.029,13.2980,4.59986,2470.04,2021-1-13T02:53:40Z
2021-01-13T00:55:42Z,42.805,6.029,13.2983,4.59985,2470.007,2021-1-13T02:56:43Z
2021-01-13T00:58:45Z,42.805,6.029,13.2983,4.59985,2470.017,2021-1-13T02:59:47Z
2021-01-13T01:01:49Z,42.805,6.029,13.2981,4.59987,2470.017,2021-1-13T03:02:50Z
2021-01-13T01:04:52Z,42.805,6.029,13.2982,4.59986,2470.017,2021-1-13T03:05:53Z
2021-01-13T01:07:55Z,42.805,6.029,13.2982,4.59985,2470.007,2021-1-13T03:08:56Z
2021-01-13T01:10:58Z,42.805,6.029,13.2984,4.59986,2469.993,2021-1-13T03:11:59Z
2021-01-13T01:14:01Z,42.805,6.029,13.2983,4.59986,2470.03,2021-1-13T03:15:02Z
2021-01-13T01:17:04Z,42.805,6.029,13.2985,4.59986,2470.03,2021-1-13T03:18:05Z
2021-01-13T01:20:07Z,42.805,6.029,13.2984,4.59999,2469.993,2021-1-13T03:21:08Z
2021-01-13T01:23:10Z,42.805,6.029,13.2982,4.59987,2470.007,2021-1-13T03:24:12Z
2021-01-13T01:26:13Z,42.805,6.029,13.2983,4.59986,2470.017,2021-1-13T03:27:15Z
2021-01-13T01:29:17Z,42.805,6.029,13.2983,4.59987,2470.017,2021-1-13T03:30:18Z
2021-01-13T01:32:20Z,42.805,6.029,13.2982,4.59985,2469.993,2021-1-13T03:33:21Z
2021-01-13T01:35:23Z,42.805,6.029,13.2983,4.59986,2470.017,2021-1-13T03:36:24Z
2021-01-13T01:38:26Z,42.805,6.029,13.2981,4.59985,2470.017,2021-1-13T03:39:27Z
2021-01-13T01:41:29Z,42.805,6.029,13.2979,4.59986,2470.017,2021-1-13T03:42:30Z
2021-01-13T01:44:32Z,42.805,6.029,13.2983,4.59985,2469.993,2021-1-13T03:45:33Z
2021-01-13T01:47:35Z,42.805,6.029,13.2982,4.59986,2470.053,2021-1-13T03:48:37Z
2021-01-13T01:50:39Z,42.805,6.029,13.2982,4.59987,2470.04,2021-1-13T03:51:40Z
2021-01-13T01:53:42Z,42.805,6.029,13.2980,4.59988,2470.017,2021-1-13T03:54:43Z
2021-01-13T01:56:45Z,42.805,6.029,13.2983,4.59985,2470.077,2021-1-13T03:57:46Z
2021-01-13T01:59:48Z,42.805,6.029,13.2982,4.59986,2469.993,2021-1-13T04:00:49Z
2021-01-13T02:02:51Z,42.805,6.029,13.2983,4.59986,2470.017,2021-1-13T04:03:52Z
2021-01-13T02:05:54Z,42.805,6.029,13.2979,4.59986,2470.04,2021-1-13T04:06:55Z
2021-01-13T02:08:57Z,42.805,6.029,13.2982,4.59990,2470.007,2021-1-13T04:09:58Z
2021-01-13T02:12:00Z,42.805,6.029,13.2981,4.59986,2470.017,2021-1-13T04:13:02Z
2021-01-13T02:15:03Z,42.805,6.029,13.2982,4.59988,2470.04,2021-1-13T04:16:05Z
2021-01-13T02:18:07Z,42.805,6.029,13.2977,4.59989,2470.053,2021-1-13T04:19:08Z
2021-01-13T02:21:10Z,42.805,6.029,13.2984,4.59986,2469.993,2021-1-13T04:22:11Z
2021-01-13T02:24:13Z,42.805,6.029,13.2982,4.59986,2470.017,2021-1-13T04:25:14Z
2021-01-13T02:27:16Z,42.805,6.029,13.2980,4.59991,2470.04,2021-1-13T04:28:17Z
2021-01-13T02:30:19Z,42.805,6.029,13.2979,4.59986,2470.04,2021-1-13T04:31:20Z
2021-01-13T02:33:22Z,42.805,6.029,13.2983,4.59997,2470.077,2021-1-13T04:34:23Z
2021-01-13T02:36:25Z,42.805,6.029,13.2984,4.59986,2470.04,2021-1-13T04:37:27Z
2021-01-13T02:39:28Z,42.805,6.029,13.2984,4.59988,2470.04,2021-1-13T04:40:30Z
2021-01-13T02:42:32Z,42.805,6.029,13.2983,4.59988,2470.053,2021-1-13T04:43:33Z
2021-01-13T02:45:35Z,42.805,6.029,13.2985,4.59991,2470.063,2021-1-13T04:46:36Z
2021-01-13T02:48:38Z,42.805,6.029,13.2991,4.59991,2470.04,2021-1-13T04:49:39Z
2021-01-13T02:51:41Z,42.805,6.029,13.2981,4.59988,2470.04,2021-1-13T04:52:42Z
2021-01-13T02:54:44Z,42.805,6.029,13.2985,4.59992,2470.063,2021-1-13T04:55:45Z
2021-01-13T02:57:47Z,42.805,6.029,13.2987,4.59991,2470.04,2021-1-13T04:58:48Z
2021-01-13T03:00:50Z,42.805,6.029,13.2980,4.59990,2470.053,2021-1-13T05:01:52Z
2021-01-13T03:03:53Z,42.805,6.029,13.2984,4.59992,2470.04,2021-1-13T05:04:55Z
2021-01-13T03:06:57Z,42.805,6.029,13.2988,4.59989,2470.063,2021-1-13T05:07:58Z
2021-01-13T03:10:00Z,42.805,6.029,13.2988,4.60001,2470.053,2021-1-13T05:11:01Z
2021-01-13T03:13:03Z,42.805,6.029,13.2987,4.59990,2470.1,2021-1-13T05:14:04Z
2021-01-13T03:16:06Z,42.805,6.029,13.2985,4.59986,2470.1,2021-1-13T05:17:07Z
2021-01-13T03:19:09Z,42.805,6.029,13.2983,4.59986,2470.077,2021-1-13T05:20:10Z
2021-01-13T03:22:12Z,42.805,6.029,13.2993,4.59986,2470.087,2021-1-13T05:23:13Z
2021-01-13T03:25:15Z,42.805,6.029,13.2986,4.59988,2470.1,2021-1-13T05:26:17Z
2021-01-13T03:28:18Z,42.805,6.029,13.2983,4.59990,2470.077,2021-1-13T05:29:20Z
2021-01-13T03:31:22Z,42.805,6.029,13.2982,4.59991,2470.087,2021-1-13T05:32:23Z
2021-01-13T03:34:25Z,42.805,6.029,13.2982,4.59993,2470.1,2021-1-13T05:35:26Z
2021-01-13T03:37:28Z,42.805,6.029,13.2984,4.59994,2470.1,2021-1-13T05:38:29Z
2021-01-13T03:40:31Z,42.805,6.029,13.2981,4.59988,2470.077,2021-1-13T05:41:32Z
2021-01-13T03:43:34Z,42.805,6.029,13.2982,4.59988,2470.087,2021-1-13T05:44:35Z
2021-01-13T03:46:37Z,42.805,6.029,13.2982,4.59989,2470.11,2021-1-13T05:47:38Z
2021-01-13T03:49:40Z,42.805,6.029,13.2983,4.59987,2470.11,2021-1-13T05:50:42Z
2021-01-13T03:52:43Z,42.805,6.029,13.2981,4.59990,2470.133,2021-1-13T05:53:45Z
2021-01-13T03:55:47Z,42.805,6.029,13.2987,4.59991,2470.147,2021-1-13T05:56:48Z
2021-01-13T03:58:50Z,42.805,6.029,13.2985,4.59995,2470.124,2021-1-13T05:59:51Z
2021-01-13T04:01:53Z,42.805,6.029,13.2982,4.60003,2470.147,2021-1-13T06:02:54Z
2021-01-13T04:04:56Z,42.805,6.029,13.2984,4.59994,2470.124,2021-1-13T06:05:57Z
2021-01-13T04:07:59Z,42.805,6.029,13.2981,4.59988,2470.133,2021-1-13T06:09:00Z
2021-01-13T04:11:02Z,42.805,6.029,13.2984,4.59993,2470.156,2021-1-13T06:12:03Z
2021-01-13T04:14:05Z,42.805,6.029,13.2982,4.59988,2470.087,2021-1-13T06:15:06Z
2021-01-13T04:17:08Z,42.805,6.029,13.2982,4.59986,2470.133,2021-1-13T06:18:10Z
2021-01-13T04:20:12Z,42.805,6.029,13.2984,4.59986,2470.156,2021-1-13T06:21:13Z
2021-01-13T04:23:15Z,42.805,6.029,13.2981,4.59986,2470.171,2021-1-13T06:24:16Z
2021-01-13T04:26:18Z,42.805,6.029,13.2986,4.59989,2470.156,2021-1-13T06:27:19Z
2021-01-13T04:29:21Z,42.805,6.029,13.2981,4.59991,2470.156,2021-1-13T06:30:22Z
2021-01-13T04:32:24Z,42.805,6.029,13.2981,4.59988,2470.156,2021-1-13T06:33:25Z
2021-01-13T04:35:27Z,42.805,6.029,13.2982,4.59994,2470.18,2021-1-13T06:36:28Z
2021-01-13T04:38:30Z,42.805,6.029,13.2982,4.59988,2470.119,2021-1-13T06:39:31Z
2021-01-13T04:41:33Z,42.805,6.029,13.2983,4.59991,2470.156,2021-1-13T06:42:35Z
2021-01-13T04:44:37Z,42.805,6.029,13.2982,4.59988,2470.18,2021-1-13T06:45:38Z
2021-01-13T04:47:40Z,42.805,6.029,13.2982,4.59990,2470.166,2021-1-13T06:48:41Z
2021-01-13T04:50:43Z,42.805,6.029,13.2982,4.59990,2470.203,2021-1-13T06:51:44Z
2021-01-13T04:53:46Z,42.805,6.029,13.2982,4.59991,2470.194,2021-1-13T06:54:47Z
2021-01-13T04:56:49Z,42.805,6.029,13.2983,4.59991,2470.18,2021-1-13T06:57:50Z
2021-01-13T04:59:52Z,42.805,6.029,13.2982,4.59991,2470.203,2021-1-13T07:00:53Z
2021-01-13T05:02:55Z,42.805,6.029,13.2982,4.59989,2470.203,2021-1-13T07:03:56Z
2021-01-13T05:05:58Z,42.805,6.029,13.2985,4.59991,2470.227,2021-1-13T07:07:00Z
2021-01-13T05:09:01Z,42.805,6.029,13.2987,4.59991,2470.227,2021-1-13T07:10:03Z
2021-01-13T05:12:05Z,42.805,6.029,13.2984,4.59993,2470.217,2021-1-13T07:13:06Z
2021-01-13T05:15:08Z,42.805,6.029,13.2981,4.59991,2470.24,2021-1-13T07:16:09Z
2021-01-13T05:18:11Z,42.805,6.029,13.2983,4.59991,2470.227,2021-1-13T07:19:12Z
2021-01-13T05:21:14Z,42.805,6.029,13.2982,4.59993,2470.203,2021-1-13T07:22:15Z
2021-01-13T05:24:17Z,42.805,6.029,13.2984,4.59992,2470.227,2021-1-13T07:25:18Z
2021-01-13T05:27:20Z,42.805,6.029,13.2982,4.59989,2470.24,2021-1-13T07:28:21Z
2021-01-13T05:30:23Z,42.805,6.029,13.2985,4.59990,2470.227,2021-1-13T07:31:25Z
2021-01-13T05:33:26Z,42.805,6.029,13.2983,4.59991,2470.24,2021-1-13T07:34:28Z
2021-01-13T05:36:30Z,42.805,6.029,13.2981,4.59988,2470.24,2021-1-13T07:37:31Z
2021-01-13T05:39:33Z,42.805,6.029,13.2989,4.59991,2470.25,2021-1-13T07:40:34Z
2021-01-13T05:42:36Z,42.805,6.029,13.2980,4.59988,2470.24,2021-1-13T07:43:37Z
2021-01-13T05:45:39Z,42.805,6.029,13.2986,4.59991,2470.25,2021-1-13T07:46:40Z
2021-01-13T05:48:42Z,42.805,6.029,13.2984,4.59988,2470.25,2021-1-13T07:49:43Z
2021-01-13T05:51:45Z,42.805,6.029,13.2979,4.59989,2470.227,2021-1-13T07:52:46Z
2021-01-13T05:54:48Z,42.805,6.029,13.2982,4.59989,2470.24,2021-1-13T07:55:50Z
2021-01-13T05:57:51Z,42.805,6.029,13.2983,4.59991,2470.273,2021-1-13T07:58:53Z
2021-01-13T06:00:55Z,42.805,6.029,13.2986,4.59992,2470.25,2021-1-13T08:01:56Z
2021-01-13T06:03:58Z,42.805,6.029,13.2985,4.59989,2470.287,2021-1-13T08:04:59Z
2021-01-13T06:07:01Z,42.805,6.029,13.2982,4.59988,2470.25,2021-1-13T08:08:02Z
2021-01-13T06:10:04Z,42.805,6.029,13.2983,4.59990,2470.273,2021-1-13T08:11:05Z
2021-01-13T06:13:07Z,42.805,6.029,13.2985,4.59989,2470.273,2021-1-13T08:14:08Z
2021-01-13T06:16:10Z,42.805,6.029,13.2986,4.59988,2470.273,2021-1-13T08:17:11Z
2021-01-13T06:19:13Z,42.805,6.029,13.2983,4.59988,2470.25,2021-1-13T08:20:15Z
2021-01-13T06:22:16Z,42.805,6.029,13.2982,4.59991,2470.287,2021-1-13T08:23:18Z
2021-01-13T06:25:20Z,42.805,6.029,13.2983,4.59990,2470.334,2021-1-13T08:26:21Z
2021-01-13T06:28:23Z,42.805,6.029,13.2984,4.59990,2470.24,2021-1-13T08:29:24Z
2021-01-13T06:31:26Z,42.805,6.029,13.2983,4.59988,2470.287,2021-1-13T08:32:27Z
2021-01-13T06:34:29Z,42.805,6.029,13.2983,4.59988,2470.273,2021-1-13T08:35:30Z
2021-01-13T06:37:32Z,42.805,6.029,13.2983,4.59988,2470.273,2021-1-13T08:38:33Z
2021-01-13T06:40:35Z,42.805,6.029,13.2984,4.59990,2470.264,2021-1-13T08:41:36Z
2021-01-13T06:43:38Z,42.805,6.029,13.2984,4.59988,2470.297,2021-1-13T08:44:40Z
2021-01-13T06:46:41Z,42.805,6.029,13.2981,4.59991,2470.297,2021-1-13T08:47:43Z
2021-01-13T06:49:45Z,42.805,6.029,13.2986,4.59990,2470.25,2021-1-13T08:50:46Z
2021-01-13T06:52:48Z,42.805,6.029,13.2986,4.59989,2470.273,2021-1-13T08:53:49Z
2021-01-13T06:55:51Z,42.805,6.029,13.2990,4.59991,2470.287,2021-1-13T08:56:52Z
2021-01-13T06:58:54Z,42.805,6.029,13.2986,4.59989,2470.297,2021-1-13T08:59:55Z
2021-01-13T07:01:57Z,42.805,6.029,13.2987,4.59987,2470.287,2021-1-13T09:02:58Z
2021-01-13T07:05:00Z,42.805,6.029,13.2988,4.59987,2470.297,2021-1-13T09:06:01Z
2021-01-13T07:08:03Z,42.805,6.029,13.2985,4.59990,2470.287,2021-1-13T09:09:04Z
2021-01-13T07:11:06Z,42.805,6.029,13.2985,4.59987,2470.32,2021-1-13T09:12:08Z
2021-01-13T07:14:09Z,42.805,6.029,13.2982,4.59986,2470.297,2021-1-13T09:15:11Z
2021-01-13T07:17:13Z,42.805,6.029,13.2983,4.59986,2470.297,2021-1-13T09:18:14Z
2021-01-13T07:20:16Z,42.805,6.029,13.2984,4.59988,2470.297,2021-1-13T09:21:17Z
2021-01-13T07:23:19Z,42.805,6.029,13.2982,4.59988,2470.273,2021-1-13T09:24:20Z
2021-01-13T07:26:22Z,42.805,6.029,13.2982,4.59988,2470.297,2021-1-13T09:27:23Z
2021-01-13T07:29:25Z,42.805,6.029,13.2985,4.59988,2470.297,2021-1-13T09:30:26Z
2021-01-13T07:32:28Z,42.805,6.029,13.2982,4.59987,2470.297,2021-1-13T09:33:29Z
2021-01-13T07:35:31Z,42.805,6.029,13.2983,4.59991,2470.31,2021-1-13T09:36:33Z
2021-01-13T07:38:34Z,42.805,6.029,13.2986,4.59989,2470.297,2021-1-13T09:39:36Z
2021-01-13T07:41:38Z,42.805,6.029,13.2985,4.59991,2470.273,2021-1-13T09:42:39Z
2021-01-13T07:44:41Z,42.805,6.029,13.2984,4.59989,2470.334,2021-1-13T09:45:42Z
2021-01-13T07:47:44Z,42.805,6.029,13.2985,4.59988,2470.31,2021-1-13T09:48:45Z
2021-01-13T07:50:47Z,42.805,6.029,13.2983,4.59987,2470.273,2021-1-13T09:51:48Z
2021-01-13T07:53:50Z,42.805,6.029,13.2980,4.59990,2470.32,2021-1-13T09:54:51Z
2021-01-13T07:56:53Z,42.805,6.029,13.2982,4.59989,2470.297,2021-1-13T09:57:54Z
2021-01-13T07:59:56Z,42.805,6.029,13.2985,4.59988,2470.297,2021-1-13T10:00:58Z
2021-01-13T08:02:59Z,42.805,6.029,13.2984,4.59988,2470.297,2021-1-13T10:04:01Z
2021-01-13T08:06:03Z,42.805,6.029,13.2983,4.59988,2470.297,2021-1-13T10:07:04Z
2021-01-13T08:09:06Z,42.805,6.029,13.2982,4.59989,2470.343,2021-1-13T10:10:07Z
2021-01-13T08:12:09Z,42.805,6.029,13.2982,4.59989,2470.32,2021-1-13T10:13:10Z
2021-01-13T08:15:12Z,42.805,6.029,13.2982,4.59987,2470.297,2021-1-13T10:16:13Z
2021-01-13T08:18:15Z,42.805,6.029,13.2986,4.59987,2470.334,2021-1-13T10:19:16Z
2021-01-13T08:21:18Z,42.805,6.029,13.2984,4.59988,2470.31,2021-1-13T10:22:19Z
2021-01-13T08:24:21Z,42.805,6.029,13.2983,4.59986,2470.287,2021-1-13T10:25:23Z
2021-01-13T08:27:25Z,42.805,6.029,13.2986,4.59989,2470.287,2021-1-13T10:28:26Z
2021-01-13T08:30:28Z,42.805,6.029,13.2986,4.59986,2470.297,2021-1-13T10:31:29Z
2021-01-13T08:33:31Z,42.805,6.029,13.2983,4.59988,2470.26,2021-1-13T10:34:32Z
2021-01-13T08:36:34Z,42.805,6.029,13.2980,4.59988,2470.287,2021-1-13T10:37:35Z
2021-01-13T08:39:37Z,42.805,6.029,13.2987,4.59987,2470.32,2021-1-13T10:40:38Z
2021-01-13T08:42:40Z,42.805,6.029,13.2986,4.59986,2470.273,2021-1-13T10:43:41Z
2021-01-13T08:45:43Z,42.805,6.029,13.2986,4.59988,2470.32,2021-1-13T10:46:45Z
2021-01-13T08:48:46Z,42.805,6.029,13.2986,4.59986,2470.297,2021-1-13T10:49:48Z
2021-01-13T08:51:50Z,42.805,6.029,13.2982,4.59988,2470.31,2021-1-13T10:52:51Z
2021-01-13T08:54:53Z,42.805,6.029,13.2984,4.59986,2470.297,2021-1-13T10:55:54Z
2021-01-13T08:57:56Z,42.805,6.029,13.2985,4.59988,2470.297,2021-1-13T10:58:57Z
2021-01-13T09:00:59Z,42.805,6.029,13.2982,4.59986,2470.32,2021-1-13T11:02:00Z
2021-01-13T09:04:02Z,42.805,6.029,13.2983,4.59986,2470.273,2021-1-13T11:05:03Z
2021-01-13T09:07:05Z,42.805,6.029,13.2982,4.59989,2470.273,2021-1-13T11:08:06Z
2021-01-13T09:10:08Z,42.805,6.029,13.2982,4.59986,2470.297,2021-1-13T11:11:10Z
2021-01-13T09:13:11Z,42.805,6.029,13.2984,4.59986,2470.297,2021-1-13T11:14:13Z
2021-01-13T09:16:15Z,42.805,6.029,13.2982,4.59988,2470.297,2021-1-13T11:17:16Z
2021-01-13T09:19:18Z,42.805,6.029,13.2981,4.59986,2470.273,2021-1-13T11:20:19Z
2021-01-13T09:22:21Z,42.805,6.029,13.2987,4.59986,2470.31,2021-1-13T11:23:22Z
2021-01-13T09:25:24Z,42.805,6.029,13.2990,4.59987,2470.273,2021-1-13T11:26:25Z
2021-01-13T09:28:27Z,42.805,6.029,13.2984,4.59991,2470.297,2021-1-13T11:29:28Z
2021-01-13T09:31:30Z,42.805,6.029,13.2985,4.59988,2470.273,2021-1-13T11:32:31Z
2021-01-13T09:34:33Z,42.805,6.029,13.2984,4.59986,2470.287,2021-1-13T11:35:35Z
2021-01-13T09:37:36Z,42.805,6.029,13.2990,4.59986,2470.287,2021-1-13T11:38:38Z
2021-01-13T09:40:40Z,42.805,6.029,13.2983,4.59988,2470.297,2021-1-13T11:41:41Z
2021-01-13T09:43:43Z,42.805,6.029,13.2986,4.59988,2470.273,2021-1-13T11:44:44Z
2021-01-13T09:46:46Z,42.805,6.029,13.2980,4.59987,2470.264,2021-1-13T11:47:47Z
2021-01-13T09:49:49Z,42.805,6.029,13.2986,4.59986,2470.264,2021-1-13T11:50:50Z
2021-01-13T09:52:52Z,42.805,6.029,13.2981,4.59988,2470.273,2021-1-13T11:53:53Z
2021-01-13T09:55:55Z,42.805,6.029,13.2982,4.59986,2470.287,2021-1-13T11:56:56Z
2021-01-13T09:58:58Z,42.805,6.029,13.2983,4.59986,2470.24,2021-1-13T12:00:00Z
2021-01-13T10:02:01Z,42.805,6.029,13.2979,4.59987,2470.31,2021-1-13T12:03:03Z
2021-01-13T10:05:05Z,42.805,6.029,13.2986,4.59987,2470.25,2021-1-13T12:06:06Z
2021-01-13T10:08:08Z,42.805,6.029,13.2985,4.59986,2470.297,2021-1-13T12:09:09Z
2021-01-13T10:11:11Z,42.805,6.029,13.2984,4.59989,2470.25,2021-1-13T12:12:12Z
2021-01-13T10:14:14Z,42.805,6.029,13.2986,4.59986,2470.25,2021-1-13T12:15:15Z
2021-01-13T10:17:17Z,42.805,6.029,13.2986,4.59985,2470.227,2021-1-13T12:18:18Z
2021-01-13T10:20:20Z,42.805,6.029,13.2982,4.59985,2470.287,2021-1-13T12:21:21Z
2021-01-13T10:23:23Z,42.805,6.029,13.2979,4.59986,2470.287,2021-1-13T12:24:25Z
2021-01-13T10:26:26Z,42.805,6.029,13.2982,4.59987,2470.25,2021-1-13T12:27:28Z
2021-01-13T10:29:30Z,42.805,6.029,13.2985,4.59986,2470.24,2021-1-13T12:30:31Z
2021-01-13T10:32:33Z,42.805,6.029,13.2984,4.59986,2470.227,2021-1-13T12:33:34Z
2021-01-13T10:35:36Z,42.805,6.029,13.2984,4.59986,2470.25,2021-1-13T12:36:37Z
2021-01-13T10:38:39Z,42.805,6.029,13.2986,4.59986,2470.227,2021-1-13T12:39:40Z
2021-01-13T10:41:42Z,42.805,6.029,13.2987,4.59986,2470.227,2021-1-13T12:42:43Z
2021-01-13T10:44:45Z,42.805,6.029,13.2983,4.59987,2470.25,2021-1-13T12:45:46Z
2021-01-13T10:47:48Z,42.805,6.029,13.2984,4.59986,2470.25,2021-1-13T12:48:50Z
2021-01-13T10:50:52Z,42.805,6.029,13.2984,4.59986,2470.227,2021-1-13T12:51:53Z
2021-01-13T10:53:55Z,42.805,6.029,13.2982,4.59986,2470.24,2021-1-13T12:54:56Z
2021-01-13T10:56:58Z,42.805,6.029,13.2989,4.59986,2470.189,2021-1-13T12:57:59Z
2021-01-13T11:00:01Z,42.805,6.029,13.2985,4.59987,2470.25,2021-1-13T13:01:02Z
2021-01-13T11:03:04Z,42.805,6.029,13.2984,4.59986,2470.217,2021-1-13T13:04:05Z
2021-01-13T11:06:07Z,42.805,6.029,13.2986,4.59987,2470.236,2021-1-13T13:07:08Z
2021-01-13T11:09:10Z,42.805,6.029,13.2986,4.59986,2470.24,2021-1-13T13:10:11Z
2021-01-13T11:12:13Z,42.805,6.029,13.2984,4.59986,2470.227,2021-1-13T13:13:15Z
2021-01-13T11:15:17Z,42.805,6.029,13.2981,4.59987,2470.203,2021-1-13T13:16:18Z
2021-01-13T11:18:20Z,42.805,6.029,13.2983,4.59988,2470.203,2021-1-13T13:19:21Z
2021-01-13T11:21:23Z,42.805,6.029,13.2980,4.59986,2470.264,2021-1-13T13:22:24Z
2021-01-13T11:24:26Z,42.805,6.029,13.2980,4.59986,2470.217,2021-1-13T13:25:27Z
2021-01-13T11:27:29Z,42.805,6.029,13.2981,4.59987,2470.18,2021-1-13T13:28:30Z
2021-01-13T11:30:32Z,42.805,6.029,13.2985,4.59986,2470.217,2021-1-13T13:31:33Z
2021-01-13T11:33:35Z,42.805,6.029,13.2983,4.59986,2470.194,2021-1-13T13:34:37Z
2021-01-13T11:36:38Z,42.805,6.029,13.2983,4.59990,2470.194,2021-1-13T13:37:40Z
2021-01-13T11:39:42Z,42.805,6.029,13.2987,4.59986,2470.203,2021-1-13T13:40:43Z
2021-01-13T11:42:45Z,42.805,6.029,13.2985,4.59986,2470.18,2021-1-13T13:43:46Z
2021-01-13T11:45:48Z,42.805,6.029,13.2985,4.59987,2470.217,2021-1-13T13:46:49Z
2021-01-13T11:48:51Z,42.805,6.029,13.2985,4.59986,2470.156,2021-1-13T13:49:52Z
2021-01-13T11:51:54Z,42.805,6.029,13.2983,4.59986,2470.156,2021-1-13T13:52:55Z
2021-01-13T11:54:57Z,42.805,6.029,13.2984,4.59986,2470.18,2021-1-13T13:55:58Z
2021-01-13T11:58:00Z,42.805,6.029,13.2983,4.59986,2470.194,2021-1-13T13:59:02Z
2021-01-13T12:01:03Z,42.805,6.029,13.2985,4.59986,2470.156,2021-1-13T14:02:05Z
2021-01-13T12:04:07Z,42.805,6.029,13.2985,4.59991,2470.133,2021-1-13T14:05:08Z
2021-01-13T12:07:10Z,42.805,6.029,13.2983,4.59986,2470.147,2021-1-13T14:08:11Z
2021-01-13T12:10:13Z,42.805,6.029,13.2983,4.59986,2470.171,2021-1-13T14:11:14Z
2021-01-13T12:13:16Z,42.805,6.029,13.2986,4.59987,2470.18,2021-1-13T14:14:17Z
2021-01-13T12:16:19Z,42.805,6.029,13.2980,4.59986,2470.143,2021-1-13T14:17:20Z
2021-01-13T12:19:22Z,42.805,6.029,13.2982,4.59985,2470.171,2021-1-13T14:20:23Z
2021-01-13T12:22:25Z,42.805,6.029,13.2986,4.59986,2470.171,2021-1-13T14:23:27Z
2021-01-13T12:25:28Z,42.805,6.029,13.2982,4.59985,2470.11,2021-1-13T14:26:30Z
2021-01-13T12:28:32Z,42.805,6.029,13.2983,4.59986,2470.133,2021-1-13T14:29:33Z
2021-01-13T12:31:35Z,42.805,6.029,13.2984,4.59987,2470.124,2021-1-13T14:32:36Z
2021-01-13T12:34:38Z,42.805,6.029,13.2983,4.59987,2470.133,2021-1-13T14:35:39Z
2021-01-13T12:37:41Z,42.805,6.029,13.2982,4.59988,2470.11,2021-1-13T14:38:42Z
2021-01-13T12:40:44Z,42.805,6.029,13.2983,4.59985,2470.138,2021-1-13T14:41:45Z
2021-01-13T12:43:47Z,42.805,6.029,13.2982,4.59987,2470.147,2021-1-13T14:44:48Z
2021-01-13T12:46:50Z,42.805,6.029,13.2982,4.59987,2470.147,2021-1-13T14:47:52Z
2021-01-13T12:49:54Z,42.805,6.029,13.2986,4.59985,2470.147,2021-1-13T14:50:55Z
2021-01-13T12:52:57Z,42.805,6.029,13.2984,4.59986,2470.156,2021-1-13T14:53:58Z
2021-01-13T12:56:00Z,42.805,6.029,13.2989,4.59986,2470.124,2021-1-13T14:57:01Z
2021-01-13T12:59:03Z,42.805,6.029,13.2982,4.59994,2470.133,2021-1-13T15:00:04Z
2021-01-13T13:02:06Z,42.805,6.029,13.2983,4.59986,2470.147,2021-1-13T15:03:07Z
2021-01-13T13:05:09Z,42.805,6.029,13.2983,4.59986,2470.124,2021-1-13T15:06:10Z
2021-01-13T13:08:12Z,42.805,6.029,13.2986,4.59988,2470.124,2021-1-13T15:09:14Z
2021-01-13T13:11:15Z,42.805,6.029,13.2986,4.59986,2470.087,2021-1-13T15:12:17Z
2021-01-13T13:14:19Z,42.805,6.029,13.2984,4.59986,2470.087,2021-1-13T15:15:20Z
2021-01-13T13:17:22Z,42.805,6.029,13.2985,4.59985,2470.11,2021-1-13T15:18:23Z
2021-01-13T13:20:25Z,42.805,6.029,13.2981,4.59986,2470.087,2021-1-13T15:21:26Z
2021-01-13T13:23:28Z,42.805,6.029,13.2983,4.59985,2470.124,2021-1-13T15:24:29Z
2021-01-13T13:26:31Z,42.805,6.029,13.2983,4.59986,2470.077,2021-1-13T15:27:32Z
2021-01-13T13:29:34Z,42.805,6.029,13.2983,4.59985,2470.053,2021-1-13T15:30:35Z
2021-01-13T13:32:37Z,42.805,6.029,13.2982,4.59991,2470.11,2021-1-13T15:33:39Z
2021-01-13T13:35:40Z,42.805,6.029,13.2982,4.59986,2470.11,2021-1-13T15:36:42Z
2021-01-13T13:38:44Z,42.805,6.029,13.2982,4.59986,2470.087,2021-1-13T15:39:45Z
2021-01-13T13:41:47Z,42.805,6.029,13.2982,4.59987,2470.077,2021-1-13T15:42:48Z
2021-01-13T13:44:50Z,42.805,6.029,13.2979,4.59986,2470.063,2021-1-13T15:45:51Z
2021-01-13T13:47:53Z,42.805,6.029,13.2980,4.59985,2470.063,2021-1-13T15:48:54Z
2021-01-13T13:50:56Z,42.805,6.029,13.2979,4.59984,2470.077,2021-1-13T15:51:57Z
2021-01-13T13:53:59Z,42.805,6.029,13.2983,4.59985,2470.087,2021-1-13T15:55:00Z
2021-01-13T13:57:02Z,42.805,6.029,13.2982,4.59986,2470.11,2021-1-13T15:58:04Z
2021-01-13T14:00:05Z,42.805,6.029,13.2982,4.59985,2470.087,2021-1-13T16:01:07Z
2021-01-13T14:03:09Z,42.805,6.029,13.2985,4.59985,2470.063,2021-1-13T16:04:10Z
2021-01-13T14:06:12Z,42.805,6.029,13.2983,4.59986,2470.087,2021-1-13T16:07:13Z
2021-01-13T14:09:15Z,42.805,6.029,13.2985,4.59986,2470.063,2021-1-13T16:10:16Z
2021-01-13T14:12:18Z,42.805,6.029,13.2981,4.59985,2470.1,2021-1-13T16:13:19Z
2021-01-13T14:15:21Z,42.805,6.029,13.2983,4.59985,2470.11,2021-1-13T16:16:22Z
2021-01-13T14:18:24Z,42.805,6.029,13.2983,4.59987,2470.077,2021-1-13T16:19:25Z
2021-01-13T14:21:27Z,42.805,6.029,13.2983,4.59985,2470.04,2021-1-13T16:22:29Z
2021-01-13T14:24:30Z,42.805,6.029,13.2984,4.59985,2470.077,2021-1-13T16:25:32Z
2021-01-13T14:27:34Z,42.805,6.029,13.2982,4.59986,2470.077,2021-1-13T16:28:35Z
2021-01-13T14:30:37Z,42.805,6.029,13.2983,4.59986,2470.077,2021-1-13T16:31:38Z
2021-01-13T14:33:40Z,42.805,6.029,13.2983,4.59986,2470.096,2021-1-13T16:34:41Z
2021-01-13T14:36:43Z,42.805,6.029,13.2981,4.59985,2470.077,2021-1-13T16:37:44Z
2021-01-13T14:39:46Z,42.805,6.029,13.2981,4.59986,2470.063,2021-1-13T16:40:47Z
2021-01-13T14:42:49Z,42.805,6.029,13.2982,4.59986,2470.087,2021-1-13T16:43:50Z
2021-01-13T14:45:52Z,42.805,6.029,13.2983,4.59986,2470.077,2021-1-13T16:46:54Z
2021-01-13T14:48:56Z,42.805,6.029,13.2980,4.59986,2470.077,2021-1-13T16:49:57Z
2021-01-13T14:51:59Z,42.805,6.029,13.2983,4.59984,2470.087,2021-1-13T16:53:00Z
2021-01-13T14:55:02Z,42.805,6.029,13.2981,4.59984,2470.063,2021-1-13T16:56:03Z
2021-01-13T14:58:05Z,42.805,6.029,13.2983,4.59985,2470.063,2021-1-13T16:59:06Z
2021-01-13T15:01:08Z,42.805,6.029,13.2982,4.59986,2470.087,2021-1-13T17:02:09Z
2021-01-13T15:04:11Z,42.805,6.029,13.2982,4.59985,2470.087,2021-1-13T17:05:12Z
2021-01-13T15:07:14Z,42.805,6.029,13.2983,4.59986,2470.04,2021-1-13T17:08:15Z
2021-01-13T15:10:17Z,42.805,6.029,13.2986,4.59986,2470.04,2021-1-13T17:11:19Z
2021-01-13T15:13:20Z,42.805,6.029,13.2983,4.59988,2470.077,2021-1-13T17:14:22Z